Precipitable_Water
1.18 1.22 1.21 1.17 1.15 1.12 1.19 1.24 1.25 1.28 1.32 1.28 1.29 1.27 1.30 1.35 1.28 1.37 1.39 1.42 1.45 1.52 1.53 1.51 1.50 1.52 1.48
1.15 1.18 1.21 1.25 1.23 1.17 1.11 1.14 1.17 1.24 1.25 1.22 1.24 1.24 1.19 1.21 1.27 1.40 1.43 1.43 1.42 1.46 1.51 1.51 1.54 1.53 1.49
1.10 1.22 1.23 1.28 1.24 1.23 1.14 1.11 1.09 1.13 1.12 1.13 1.23 1.19 1.19 1.27 1.37 1.42 1.49 1.53 1.53 1.52 1.56 1.56 1.56 1.52 1.50
1.10 1.12 1.17 1.23 1.25 1.15 1.09 1.15 1.07 1.08 1.06 1.07 1.20 1.21 1.22 1.30 1.34 1.42 1.42 1.44 1.45 1.52 1.55 1.55 1.51 1.49 1.46
1.01 1.04 1.08 1.09 1.07 1.10 1.06 1.06 1.07 1.10 1.08 1.03 1.13 1.21 1.17 1.21 1.23 1.32 1.34 1.38 1.43 1.47 1.52 1.49 1.44 1.42 1.42
0.96 0.95 1.01 1.06 1.08 1.04 1.02 0.95 0.87 1.04 1.05 1.06 1.13 1.04 1.14 1.13 1.20 1.20 1.23 1.30 1.35 1.41 1.46 1.42 1.39 1.37 1.35
0.94 0.98 1.02 1.08 1.08 1.05 1.03 1.01 0.95 1.02 0.99 0.88 1.04 0.98 1.07 1.07 1.11 1.12 1.17 1.22 1.25 1.31 1.33 1.33 1.32 1.30 1.27
1.06 1.06 1.06 1.11 1.10 1.13 1.11 1.08 1.03 1.02 1.00 0.83 0.93 0.85 1.01 1.01 1.16 1.18 1.18 1.22 1.24 1.26 1.27 1.26 1.25 1.22 1.18
0.98 1.01 1.05 1.09 1.11 1.13 1.06 1.03 0.91 0.95 0.99 0.90 0.95 0.83 0.98 0.99 1.08 1.16 1.17 1.19 1.20 1.21 1.20 1.18 1.14 1.10 1.04
0.97 1.01 1.03 1.04 1.08 1.10 1.08 0.93 0.87 0.87 0.93 0.93 0.89 0.93 0.86 1.01 1.04 1.08 1.10 1.12 1.13 1.12 1.09 1.03 0.94 0.83 0.75
0.92 0.93 0.96 0.97 0.99 0.98 0.95 0.92 0.89 0.87 0.95 0.98 0.93 0.94 0.91 0.89 0.95 1.00 1.00 0.95 0.89 0.81 0.76 0.71 0.67 0.60 0.53
0.85 0.85 0.86 0.89 0.91 0.93 0.93 0.94 0.98 0.95 0.99 1.00 0.92 0.90 0.88 0.84 0.78 0.81 0.74 0.67 0.62 0.57 0.55 0.52 0.49 0.49 0.51
0.71 0.74 0.79 0.81 0.81 0.83 0.86 0.88 0.89 0.88 0.82 0.80 0.75 0.70 0.62 0.54 0.47 0.43 0.41 0.40 0.41 0.41 0.42 0.43 0.44 0.47 0.44
0.28 0.30 0.31 0.33 0.39 0.42 0.38 0.36 0.36 0.37 0.40 0.39 0.37 0.37 0.32 0.30 0.29 0.26 0.30 0.27 0.34 0.36 0.38 0.39 0.41 0.42 0.42
0.23 0.23 0.22 0.22 0.22 0.24 0.23 0.22 0.21 0.22 0.24 0.28 0.31 0.30 0.30 0.29 0.26 0.28 0.29 0.30 0.32 0.33 0.33 0.31 0.33 0.35 0.35
0.21 0.20 0.19 0.19 0.19 0.20 0.21 0.20 0.20 0.22 0.23 0.25 0.26 0.25 0.26 0.30 0.33 0.28 0.29 0.29 0.31 0.32 0.31 0.28 0.28 0.32 0.35
0.21 0.21 0.21 0.21 0.20 0.20 0.21 0.21 0.20 0.21 0.23 0.25 0.25 0.23 0.20 0.19 0.27 0.36 0.28 0.27 0.27 0.27 0.29 0.30 0.30 0.31 0.34
Wind_Speed
44 44 44 45 46 45 44 42 43 44 46 45 46 46 47 46 45 45 45 46 45 42 41 42 41 40 39
43 43 43 43 43 45 44 46 45 45 45 46 45 44 44 44 43 42 42 41 42 41 40 40 40 40 40
41 41 42 42 41 41 41 43 45 46 47 46 47 47 46 45 45 42 39 40 40 38 37 37 36 36 35
39 38 37 37 37 38 39 40 39 40 41 42 44 44 45 44 44 43 42 41 41 40 38 36 35 33 34
32 27 31 30 31 33 36 37 38 37 36 38 38 39 42 44 45 45 44 42 40 39 37 34 33 31 30
30 33 32 30 31 31 31 30 32 34 33 35 36 38 38 40 41 42 43 43 41 37 38 36 31 29 29
28 27 28 29 28 30 30 30 31 32 32 32 32 33 32 33 33 33 33 33 32 33 32 31 30 29 28
21 23 26 29 30 29 29 28 27 27 29 29 29 29 28 27 23 24 23 24 25 25 26 27 27 27 27
17 19 22 23 25 26 27 26 27 27 25 25 25 24 23 21 24 22 21 20 21 23 24 24 25 26 27
14 16 16 18 17 18 20 22 22 22 23 23 22 20 21 22 18 17 18 19 19 20 20 22 24 25 25
6 6 5 5 8 10 13 14 16 17 17 18 19 18 16 16 17 16 18 19 20 21 22 23 24 25 24
2 2 2 3 3 4 6 8 8 9 10 15 15 16 18 17 17 17 16 17 19 20 21 22 23 24 25
6 5 5 7 7 6 7 8 9 9 10 10 13 15 16 18 18 18 19 20 20 21 21 22 23 25 26
6 6 6 6 6 6 7 7 7 9 10 10 13 15 16 17 18 19 20 21 22 23 24 25 26 27 28
8 8 8 8 8 9 9 10 11 12 13 14 15 16 17 18 20 21 22 23 25 26 27 28 29 30 31
10 10 10 10 10 10 11 11 12 13 14 16 17 18 19 20 21 22 24 25 26 28 29 31 32 32 33
12 12 13 13 13 14 15 16 17 18 19 20 20 21 22 24 25 26 27 30 31 33 34 35 36 37 38
Wind_Direction
261 259 256 255 254 253 252 252 252 251 251 253 255 258 259 260 262 261 261 261 263 263 261 259 258 260 266
261 258 256 255 254 251 251 252 252 252 253 255 255 257 258 258 259 262 262 260 261 263 258 256 258 260 266
261 258 255 254 253 252 252 252 253 254 255 255 256 259 258 258 259 260 259 259 261 259 257 257 257 260 263
258 257 254 251 251 251 251 251 253 254 255 256 258 257 256 257 257 257 259 261 262 259 253 253 254 258 260
257 250 251 251 248 252 253 252 252 252 255 257 258 257 258 257 256 257 260 259 257 254 248 250 255 257 254
259 255 251 251 253 253 253 251 251 251 255 257 260 259 260 258 258 258 258 257 250 249 248 246 251 250 251
260 254 249 252 256 254 250 250 254 255 256 259 261 257 258 257 259 255 254 248 244 241 242 239 243 249 250
256 252 253 256 257 252 251 251 255 256 258 259 258 255 252 253 248 245 243 239 234 236 234 237 243 244 249
262 263 260 259 256 249 249 249 256 258 257 257 253 246 249 242 245 241 232 232 231 233 235 239 243 248 253
272 272 265 262 251 245 245 247 250 254 255 251 243 244 247 246 242 237 237 243 244 240 241 244 250 256 258
272 264 265 250 240 243 243 240 251 250 245 246 243 233 233 234 236 243 242 242 244 249 251 254 257 259 262
278 232 243 245 246 250 231 238 239 237 246 234 239 238 237 236 243 246 248 254 257 258 261 261 262 263 264
256 263 267 259 252 247 244 242 245 246 251 246 236 240 244 248 250 253 257 263 262 261 263 264 266 265 266
255 259 262 263 257 253 250 251 249 252 256 256 252 249 249 251 254 258 262 263 266 266 267 267 268 268 268
256 259 263 264 266 264 264 263 259 261 263 264 262 263 264 264 264 265 266 268 269 270 270 271 271 271 271
256 258 261 265 268 269 268 267 266 267 268 270 270 269 269 269 268 268 270 272 273 273 274 274 273 274 273
259 263 267 270 271 273 274 273 273 274 275 275 275 273 273 273 273 271 275 276 276 277 276 275 275 275 275